OpenBCM V1.08-5-g2f4a (Linux)

Packet Radio Mailbox

IZ3LSV

[San Dona' di P. JN]

 Login: GUEST





  
I0OJJ  > KEPS     12.06.25 02:41l 351 Lines 16658 Bytes #84 (0) @ AMSAT
BID : ORB25163.1
Read: GUEST
Subj: 2Line Orbital Elements 25163.AMSAT
Path: IZ3LSV<DB0ERF<DK0WUE<HB9ON<HB9ON<PI8ZTM<IR0AAB<I0OJJ<I0OJJ
Sent: 250612/0025z @:I0OJJ.ITA.EU [Rome] obcm1.08-10-g596e

>From i0ojj%i0ojj.ita.eu@i0ojj.ampr.org Thu Jun 12 02:25:07 2025
Received: from i0ojj.ampr.org by i0ojj.ampr.org (JNOS2.0p.8) with SMTP
	id AA17033153 ; Thu, 12 Jun 2025 02:25:07 +0200
Message-Id: <ORB25163.1@i0ojj.bbs>
>From: i0ojj@i0ojj.ita.eu
X-JNOS-User-Port: Telnet   (i0ojj @ 44.134.109.10)  -> Sending message

From: I0OJJ @ I0OJJ.ITA.EU (Gustavo)
To:   KEPS @ AMSAT
X-Info: This message was generated automatically


QST de W1STR

AMSAT Orbital Elements for Amateur Satellites in TLE Format
>From Orbital Analysis Office
New England Sci-Tech STEM Education Center
Natick, MA June 12, 2025
To all radio amateurs


These element sets describe the orbits of various satellites 
in use by the amateur radio community. For details see:
www.amsat.org/keplerian-elements-formats/

A daily update of element sets is available at:
www.amsat.org/tle/daily-bulletin.txt
or without bulletin text:
www.amsat.org/tle/dailytle.txt


AO-07
1 07530U 74089B   25162.50188552 -.00000040  00000-0  38044-4 0  9991
2 07530 101.9925 166.7863 0012582 117.6621  37.1073 12.53689593314306
UO-11
1 14781U 84021B   25162.48219029  .00000905  00000-0  10105-3 0  9991
2 14781  97.7543 128.8128 0007219 341.9728  18.1232 14.89393076222925
AO-27
1 22825U 93061C   25162.73529145  .00000085  00000-0  49575-4 0  9997
2 22825  98.7364 224.3016 0009537 105.3205 254.9032 14.30800146654294
FO-29
1 24278U 96046B   25161.63935473 -.00000032  00000-0  52405-5 0  9990
2 24278  98.5760  55.3914 0349602 340.0524  18.7228 13.53249161422910
NOAA-15
1 25338U 98030A   25162.84489186  .00000181  00000-0  91867-4 0  9990
2 25338  98.5345 187.9216 0010111   0.1545 359.9637 14.26980745408729
GO-32
1 25397U 98043D   25162.51832793  .00000040  00000-0  37441-4 0  9991
2 25397  98.9702 141.6777 0001266 153.6663 206.4580 14.24315596398781
ISS
1 25544U 98067A   25162.87378584  .00008511  00000-0  15622-3 0  9990
2 25544  51.6380 333.4042 0001399 212.1497 291.1430 15.50130147514335
NO-44
1 26931U 01043C   25162.32234677  .00000107  00000-0  71198-4 0  9997
2 26931  67.0497 123.3348 0006061 276.0180  84.0231 14.31735338237511
SO-50
1 27607U 02058C   25162.10512180  .00000681  00000-0  10280-3 0  9990
2 27607  64.5515 195.8277 0056583 333.6856  26.1377 14.81626713209668
CO-55
1 27844U 03031E   25162.50666766  .00000236  00000-0  12183-3 0  9999
2 27844  98.6752 170.7551 0009707 174.5018 185.6269 14.23997919138945
CO-57
1 27848U 03031J   25161.96388890  .00000206  00000-0  11024-3 0  9991
2 27848  98.6779 170.2240 0009162 193.5565 166.5368 14.23332066138619
RS-22
1 27939U 03042A   25162.85926399  .00000780  00000-0  13163-3 0  9998
2 27939  98.3281 332.3658 0011528   9.6020 126.8525 14.72359553161165
CO-58
1 28895U 05043F   25162.35475036  .00001101  00000-0  18769-3 0  9990
2 28895  98.2501 306.7269 0013333 304.0940  55.9001 14.71019690 47431
CO-65
1 32785U 08021C   25162.13496811  .00004123  00000-0  29923-3 0  9993
2 32785  97.7846 133.3086 0009194 199.5876 160.4997 15.04440965929385
CO-66
1 32791U 08021J   25162.48260208  .00008467  00000-0  41080-3 0  9990
2 32791  97.7271 142.5655 0004941 138.7072 221.4535 15.18743552930860
RS-30
1 32953U 08025A   25162.81638364  .00000045  00000-0  25459-3 0  9999
2 32953  82.5030 225.7864 0019963  44.4993 315.7686 12.43165087773816
NOAA-19
1 33591U 09005A   25162.82310887  .00000168  00000-0  11362-3 0  9999
2 33591  98.9971 227.5402 0013627   2.3589 357.7645 14.13375260842423
SRMSAT
1 37841U 11058D   25162.15679345  .00000391  00000-0  68538-4 0  9991
2 37841  19.9703 145.0044 0011961  82.6071   3.6348 14.11436672705555
ZACUBE-1
1 39417U 13066B   25162.85937965  .00003075  00000-0  26923-3 0  9998
2 39417  97.7801 119.8600 0045396  45.7189 314.7743 14.96665342625259
Delfi-N3xt
1 39428U 13066N   25161.83869888  .00005826  00000-0  59381-3 0  9995
2 39428  97.8355  79.4745 0084870 357.7265   2.3554 14.88401133619269
GOMX-1
1 39430U 13066Q   25162.80403875  .00001363  00000-0  21806-3 0  9999
2 39430  97.6832  21.3326 0132251 184.6950 175.3026 14.67642627615731
LO-74
1 39440U 13066AA  25162.82664231  .00001600  00000-0  16629-3 0  9998
2 39440  97.8498 107.3713 0062129 171.2007 189.0315 14.89942757622976
AO-73
1 39444U 13066AE  25162.41188677  .00005425  00000-0  40666-3 0  9999
2 39444  97.7835 124.3333 0043196  24.1559 336.1678 15.02357500624456
DTUSAT-2
1 40030U 14033W   25162.41410294  .00005179  00000-0  33814-3 0  9993
2 40030  98.0542 134.3208 0010600  59.5331 300.6941 15.08277764597181
EO-80
1 40032U 14033Y   25161.90358015  .00004468  00000-0  29181-3 0  9992
2 40032  98.0432 133.4390 0008714   9.6794 350.4599 15.08361045596575
LILACSAT-2
1 40908U 15049K   25162.75526684  .00008580  00000-0  22438-3 0  9992
2 40908  97.5048 183.1536 0010470 144.0469 216.1482 15.38951068538560
IO-86
1 40931U 15052B   25151.18580175  .00001241  00000-0  78118-4 0  9996
2 40931   6.0006  24.0987 0012733 338.8432  21.1169 14.78805930523047
Horyu-4
1 41340U 16012D   25162.55565028  .00015697  00000-0  41732-3 0  9992
2 41340  30.9958 118.6490 0005784  78.0358 282.0936 15.36946626513098
Lapan A3
1 41603U 16040E   25162.46277871  .00002485  00000-0  88346-4 0  9995
2 41603  97.1362 166.9963 0009061 261.1036  98.9179 15.29867365498072
CAS-2T
1 41847U 16066G   25161.79119774  .00001244  00000-0  18527-3 0  9990
2 41847  98.4202 236.2435 0346355 174.6531 185.8516 14.43480552451199
CAS-4B
1 42759U 17034B   25162.83139132  .00059283  00000-0  61332-3 0  9993
2 42759  43.0076 308.4612 0021535 304.9722  54.9121 15.63588081442957
CAS-4A
1 42761U 17034D   25162.86268513  .00065603  00000-0  64283-3 0  9996
2 42761  43.0116 305.4060 0022736 309.4301  50.4552 15.64882298442986
TechnoSat
1 42829U 17042E   25162.44287274  .00001453  00000-0  11587-3 0  9991
2 42829  97.3887 331.0694 0013477 267.9130  92.0552 15.01720202431006
AO-91
1 43017U 17073E   25161.92327844  .00006971  00000-0  35736-3 0  9997
2 43017  97.5252  32.6619 0172991 161.6920 199.0640 15.04727617409415
S-Net D
1 43186U 18014G   25162.15348344  .00003735  00000-0  22221-3 0  9994
2 43186  97.5631  65.0441 0008057 210.6862 149.3898 15.11838389402612
S-Net B
1 43187U 18014H   25162.15889674  .00003394  00000-0  20237-3 0  9997
2 43187  97.5638  65.0215 0008866 206.0883 153.9902 15.11818304402611
S-Net A
1 43188U 18014J   25162.15386028  .00003742  00000-0  22257-3 0  9994
2 43188  97.5644  65.1666 0008733 206.9298 153.1480 15.11843392402610
S-Net C
1 43189U 18014K   25161.76416808  .00002849  00000-0  17045-3 0  9997
2 43189  97.5661  64.7954 0010380 201.4697 158.6099 15.11810370401108
Ten-Koh
1 43677U 18084G   25162.46292599  .00001533  00000-0  12660-3 0  9990
2 43677  98.0860 334.7936 0005405 250.4135 109.6504 15.00582897360525
PO-101
1 43678U 18084H   25162.79239783  .00000865  00000-0  77986-4 0  9993
2 43678  98.1042 339.0017 0006918 285.6502  74.3955 14.98347444360717
QO-100
1 43700U 18090A   25162.08655990  .00000164  00000-0  00000+0 0  9990
2 43700   0.0129 301.5697 0002517 172.9413 202.1356  1.00274409 24205
MinXSS-2
1 43758U 18099A   25162.16648820  .00011504  00000-0  45221-3 0  9993
2 43758  97.5021 228.2060 0013088 145.6474 214.5612 15.25757202357219
AO-95
1 43770U 18099N   25162.69321908  .00006167  00000-0  31273-3 0  9991
2 43770  97.4915 220.7551 0010366 195.8842 164.2067 15.17260079356876
RANGE-A
1 43773U 18099R   25162.85504870  .00003058  00000-0  19650-3 0  9994
2 43773  97.4478 211.1908 0011543 175.1393 184.9951 15.09106619356560
MOVE-II
1 43780U 18099Y   25162.43318437  .00241891  00000-0  14221-2 0  9995
2 43780  97.4639 238.2038 0005754 192.2723 167.8404 15.77543427358095
SNUSat 2
1 43782U 18099AA  25161.79569386  .00004976  00000-0  27229-3 0  9990
2 43782  97.4594 216.6092 0013232 144.1154 216.0969 15.14630497356682
SnugLite
1 43784U 18099AC  25162.39337097  .00006429  00000-0  32312-3 0  9995
2 43784  97.4407 216.7591 0004879 134.1329 226.0307 15.17591663356919
ITASat 1
1 43786U 18099AE  25162.13313674  .00003943  00000-0  22686-3 0  9995
2 43786  97.4562 216.4456 0014066 194.1317 165.9523 15.12945094356694
EAGLET 1
1 43790U 18099AJ  25162.14184420  .00002871  00000-0  18492-3 0  9995
2 43790  97.4763 216.4061 0012253 176.0620 184.0708 15.09065109356307
ESEO
1 43792U 18099AL  25161.66706904  .00001459  00000-0  11367-3 0  9995
2 43792  97.4492 209.1910 0013778 153.4353 206.7581 15.02627273355988
CSIM
1 43793U 18099AM  25162.80367681  .00237498  00000-0  14739-2 0  9997
2 43793  97.4797 240.8598 0005233 177.5200 182.6092 15.76325958357994
JO-97
1 43803U 18099AX  25161.90037809  .00008205  00000-0  37424-3 0  9994
2 43803  97.4661 220.9643 0008969 134.5804 225.6165 15.20854458356975
Suomi 100
1 43804U 18099AY  25162.11462790  .00007384  00000-0  36126-3 0  9995
2 43804  97.4726 220.4688 0013689 138.4300 221.7977 15.18410412356930
ISAT
1 43879U 18111D   25162.19531483  .00013856  00000-0  47971-3 0  9997
2 43879  97.5965  76.6240 0008609 177.5050 182.6234 15.29950545351928
UWE-4
1 43880U 18111E   25162.50761028  .00010052  00000-0  39371-3 0  9994
2 43880  97.5911  75.4088 0011287 194.3847 165.7071 15.25941065351929
Sparrow
1 43881U 18111F   25162.50275487  .00014221  00000-0  47403-3 0  9991
2 43881  97.6113  79.8231 0005367 215.1178 144.9710 15.31196515352080
Prox-1
1 44339U 19036A   25162.84288126  .00007954  00000-0  99387-3 0  9991
2 44339  23.9979  46.9301 0007184  99.2152 260.9158 14.79998191318444
SONATE
1 44400U 19038Q   25162.64776402  .00282115  33664-4  69287-3 0  9995
2 44400  97.6838 189.9724 0008020 201.1997 158.8947 15.96024898329901
Taurus 1
1 44530U 19059C   25162.50111266  .00003953  00000-0  73267-3 0  9996
2 44530  98.6075 301.9846 0009473  38.9552 321.2331 14.65865365304224
